AirNav   Everest Fuels
 
 750 users online  

FD71 O'Brien Airpark East/West
Branford, Florida, USA

GOING TO BRANFORD?


FAA INFORMATION EFFECTIVE 01 DECEMBER 2022

Location

FAA Identifier: FD71
Lat/Long: 30-02-54.0000N 082-59-02.0000W
30-02.900000N 082-59.033333W
30.0483333,-82.9838889
(estimated)
Elevation: 55 ft. / 17 m (estimated)
Variation: 02W (1985)
From city: 6 miles NW of BRANFORD, FL
Time zone: UTC -5 (UTC -4 during Daylight Saving Time)
Zip code: 32071

Airport Operations

Airport use: Private use. Permission required prior to landing
Activation date: 07/1986
Control tower: no
ARTCC: JACKSONVILLE CENTER
FSS: GAINESVILLE FLIGHT SERVICE STATION
Attendance: UNATNDD
Wind indicator: yes
Segmented circle: no

Airport Communications

WX AWOS-3 at 24J (15 nm N): 118.225 (386-362-1731)

Nearby radio navigation aids

VOR radial/distance  VOR name  Freq  Var
CTYr009/27.2CROSS CITY VORTAC112.0002W
TAYr222/35.3TAYLOR VORTAC112.9003W

 
NDB name  Hdg/Dist  Freq  Var  ID
LAKE CITY252/22.620403WLCQ .-.. -.-. --.-

Airport Services

Runway Information

Runway 18/36

Dimensions: 2400 x 100 ft. / 732 x 30 m
Surface: turf, in good condition
RUNWAY 18  RUNWAY 36
Traffic pattern: leftleft

Airport Ownership and Management from official FAA records

Ownership: Privately-owned
Owner: O'BRIEN AIRPARK ASSOCIATION
PO BOX 315
O'BRIEN, FL 32071
Phone (386) 935-2042
Manager: CLYDE PENDERFRAFF
22249 117 TH DRIVE
O'BRIEN, FL 32071
Phone (386) 935-2042

Airport Operational Statistics

Aircraft based on the field: 16
Single engine airplanes: 16
    

Additional Remarks

CTN:LOW FLYING MILITARY ACFT IN VICINITY OF ARPT.
FOR CD CTC JACKSONVILLE ARTCC AT 904-845-1592.

Instrument Procedures

There are no published instrument procedures at FD71.

Some nearby airports with instrument procedures:

24J - Suwannee County Airport (15 nm N)
KLCQ - Lake City Gateway Airport (23 nm E)
KCTY - Cross City Airport (26 nm S)
KFPY - Perry-Foley Airport (31 nm W)
KGNV - Gainesville Regional Airport (43 nm SE)
 
Loc | Ops | Rwys | IFR | FBO | Links
Com | Nav | Svcs | Stats | Notes
Area around FD71 (O'Brien Airpark East/West)
 
Road maps at: MapQuest Bing Google
 
Aerial photo
WARNING: Photo may not be current or correct
Aerial photo of FD71 (O'Brien Airpark East/West)
Do you have a better or more recent aerial photo of O'Brien Airpark East/West that you would like to share? If so, please send us your photo.

 
Sectional chart

 
Airport distance calculator
Flying to O'Brien Airpark East/West? Find the distance to fly.

From to FD71

Sunrise and sunset
Times for 04-Dec-2022
 Local
(UTC-5)
 Zulu
(UTC)
Morning civil twilight06:4811:48
Sunrise07:1412:14
Sunset17:3122:31
Evening civil twilight17:5722:57

Current date and time
Zulu (UTC)  04-Dec-2022 05:00:29
Local (UTC-5)  04-Dec-2022 00:00:29
 
METAR
K24J 
15nm N 
040455Z AUTO 00000KT 10SM FEW027 BKN033 OVC042 15/15 A3025 RMK A01
KLCQ 
23nm E 
040435Z AUTO 00000KT 10SM CLR 14/14 A3026 RMK AO2
KCTY 
31nm S 
040435Z AUTO 00000KT 10SM CLR 14/13 A3027 RMK AO2 T01360133
TAF
KGNV 
42nm SE 
031732Z 0318/0418 VRB04KT P6SM SCT050 BKN250 FM032300 VRB02KT P6SM SCT250 FM040700 00000KT 3SM BR FEW010 SCT250 TEMPO 0408/0412 1SM BR SCT005 FM041300 30004KT P6SM SCT030 BKN060
KVLD 
46nm N 
040331Z 0404/0424 VRB03KT P6SM SCT035 BKN050 FM041000 36004KT 5SM BR VCSH SCT007 BKN012 OVC020 TEMPO 0411/0415 1SM BR SCT003 BKN007 OVC012 FM041600 36005KT P6SM SCT012 BKN020 FM042000 36005KT P6SM SCT020 OVC200
NOTAMs
Click for the latest NOTAMs
NOTAMs are issued by the DoD/FAA and will open in a separate window not controlled by AirNav.

 

 
 

Would you like to see your business listed on this page?

 If your business provides an interesting product or service to pilots, flight crews, aircraft, or users of the O'Brien Airpark East/West, you should consider listing it here.  To start the listing process, click on the button below
 
Add a business
 

Other Pages about O'Brien Airpark East/West

Update a link
 
Copyright © AirNav, LLC. All rights reserved. Privacy Policy  Contact